Wind_Speed
21 21 22 23 23 24 25 25 24 23 22 20 18 17 16 16 17 17 18 19 20 20 20 19 18 17 16 15 16 16 17 18 19 20 20 20 20 19
21 21 20 21 22 22 23 26 27 27 26 24 23 21 20 19 19 18 18 19 20 20 20 20 19 19 18 18 18 18 18 17 16 16 17 18 18 19
19 20 20 21 21 22 24 26 28 29 29 29 27 25 23 22 21 21 20 20 20 20 21 21 21 21 20 20 20 19 19 18 17 17 18 18 19 19
17 18 19 20 21 22 23 25 28 30 30 30 30 30 28 26 24 23 22 22 22 22 23 23 23 23 22 21 21 20 20 19 19 19 19 20 20 20
17 18 19 20 22 22 24 26 29 31 31 32 32 32 31 29 27 27 26 24 23 23 24 24 24 24 24 23 23 22 22 21 21 21 21 22 23 23
19 20 20 21 21 22 24 26 29 33 34 33 34 35 33 32 30 30 29 27 25 24 26 26 26 25 26 26 25 25 24 24 24 24 24 25 26 26
22 23 23 23 23 23 23 25 29 33 36 36 37 37 36 35 34 32 31 28 26 27 27 27 27 27 27 27 28 28 28 28 28 27 27 28 28 29
24 25 25 25 25 24 22 22 25 30 34 37 38 37 37 37 36 34 32 30 30 31 29 29 28 29 29 29 30 31 31 31 31 30 30 30 30 30
25 25 25 26 25 24 22 21 22 26 31 35 37 38 37 37 37 36 35 32 32 32 32 33 34 33 33 32 33 34 34 35 34 34 33 34 34 33
25 26 25 25 25 24 22 22 21 22 25 31 35 36 36 35 36 36 35 33 32 32 33 34 35 34 33 34 34 35 36 37 37 37 36 36 36 35
24 25 26 26 25 24 24 23 22 22 21 24 28 30 31 31 32 32 33 32 32 33 33 33 34 32 31 32 33 33 35 36 37 37 37 37 36 35
22 23 25 26 26 25 24 24 23 22 22 21 22 23 25 26 27 29 31 31 32 33 34 34 34 33 31 32 33 33 34 35 35 35 35 35 36 35
22 22 23 25 25 25 25 25 25 23 23 23 23 24 24 25 26 27 29 31 32 33 34 35 35 35 34 35 36 36 36 36 36 36 36 36 36 37
26 25 25 25 25 24 24 25 25 25 24 25 25 25 26 27 28 29 30 32 33 34 35 35 36 37 38 38 39 40 40 39 39 40 40 40 40 40
30 28 27 26 25 24 23 23 24 24 24 25 25 26 26 27 27 28 29 30 31 33 34 35 37 38 39 39 40 41 42 42 42 43 43 43 43 42
30 30 28 26 24 23 23 22 23 23 23 23 23 23 23 23 23 24 25 26 28 30 32 33 34 35 36 38 39 40 42 43 43 43 43 44 44 44
26 27 25 23 22 21 21 21 21 21 21 20 20 20 20 21 22 23 24 25 27 29 30 32 33 35 36 37 39 41 43 44 45 45 45 45 45 45
19 20 20 19 19 18 18 18 18 19 19 19 19 20 21 22 23 25 26 28 29 30 31 32 33 35 36 38 40 41 44 45 46 46 48 48 48 49
13 14 14 15 15 14 15 15 15 17 18 19 21 22 23 25 26 28 30 31 32 34 35 36 36 37 38 39 39 42 43 44 45 45 46 47 48 49
8 9 10 11 11 11 12 13 14 15 16 18 20 22 24 26 28 30 31 33 34 35 36 37 38 39 39 40 41 42 43 44 44 44 44 45 45 47
5 6 7 8 8 8 8 9 11 13 15 17 20 22 24 27 29 30 32 34 35 36 36 37 38 38 39 40 40 41 43 44 45 44 43 43 44 44
7 6 5 3 2 2 3 5 8 10 13 15 17 20 22 25 27 29 31 32 33 34 35 36 37 38 38 39 40 41 42 43 44 45 44 44 43 42
11 9 8 7 6 5 4 5 6 9 11 14 17 19 22 24 26 28 29 30 31 32 33 33 35 36 37 38 39 39 39 40 41 42 43 43 43 42
Wind_Direction
247 243 240 237 236 229 226 225 226 228 230 228 226 226 228 231 232 231 230 231 233 235 234 233 233 234 237 241 245 249 252 254 256 258 260 260 259 258
246 245 242 239 239 238 239 231 226 227 232 232 230 230 232 233 235 235 232 231 230 230 230 230 231 233 237 241 245 247 249 250 252 255 258 259 260 261
241 240 240 239 243 246 244 240 233 228 230 235 235 234 235 237 238 237 236 236 235 234 233 233 234 236 240 244 245 246 247 249 252 255 259 262 264 267
237 237 237 240 244 246 245 244 239 232 230 233 237 238 237 238 240 241 239 239 240 240 240 239 239 241 244 246 247 248 249 251 253 256 259 261 264 267
243 242 244 245 248 249 248 245 241 237 236 233 234 235 235 237 242 244 243 241 240 241 242 243 243 244 246 248 248 249 249 250 253 256 257 258 261 266
253 252 252 252 253 253 252 248 243 239 237 235 234 233 233 236 240 241 243 244 243 242 242 244 246 248 248 249 250 250 251 252 254 256 257 258 262 266
256 256 256 256 257 256 256 254 247 241 236 237 236 234 234 235 236 239 240 242 245 245 243 244 247 250 251 251 251 252 253 254 255 256 257 259 262 265
257 258 258 259 260 259 258 256 248 241 236 236 235 234 234 234 235 236 239 241 244 246 247 249 250 253 254 254 254 255 256 256 256 256 258 259 262 264
258 258 258 259 260 258 256 253 248 242 237 234 234 232 232 234 235 237 240 242 243 246 249 252 254 256 258 259 259 258 258 257 257 257 259 260 261 262
260 258 257 257 257 256 253 250 247 245 242 237 233 232 233 235 236 236 238 240 243 246 248 251 254 256 259 261 260 259 258 258 259 259 260 260 259 259
261 260 259 257 255 254 251 248 247 246 245 242 237 235 234 234 235 236 238 240 243 246 249 251 255 257 258 259 259 257 257 258 259 260 260 260 259 259
261 261 260 259 257 255 251 249 248 247 245 243 242 240 238 236 237 239 241 242 244 246 248 251 254 257 256 258 258 257 256 257 259 260 259 258 258 260
262 261 259 258 258 255 253 251 249 248 246 243 242 244 246 244 243 244 245 246 246 247 249 252 253 255 255 256 258 259 259 259 260 260 260 259 260 261
260 259 258 256 255 254 253 251 250 248 248 246 245 246 247 247 248 249 250 250 251 251 251 252 254 255 256 257 258 260 261 260 261 261 262 262 262 263
255 254 253 252 251 251 250 248 246 246 248 249 249 249 251 253 254 255 256 257 257 257 257 257 256 257 257 258 258 260 261 262 262 261 262 262 263 264
249 248 247 247 247 247 245 244 244 245 247 250 251 251 251 253 255 256 257 258 260 261 261 261 261 260 259 259 259 260 261 263 264 263 262 262 263 263
241 240 239 240 241 241 241 242 241 240 243 245 247 248 251 254 257 259 260 261 262 264 264 263 262 262 262 262 262 262 262 262 263 264 263 263 264 264
226 225 226 228 230 234 235 236 237 240 242 247 251 254 257 260 263 264 265 266 267 267 268 267 266 265 265 265 264 264 264 265 265 264 263 263 263 263
199 203 209 215 220 225 227 233 241 247 251 256 258 261 263 265 267 268 269 269 270 270 270 270 269 268 267 267 267 267 267 267 267 268 266 265 263 262
174 193 202 207 212 218 226 240 249 255 259 263 266 270 272 273 274 275 275 274 274 274 274 273 272 271 270 269 269 269 269 269 269 269 268 266 265 263
127 163 183 193 205 220 235 249 260 267 272 276 279 281 281 282 282 281 280 280 279 278 277 277 276 275 274 273 272 272 271 270 270 270 269 267 265 263
91 103 116 139 180 235 268 280 285 289 292 294 295 294 293 292 290 289 286 284 282 280 279 278 277 276 275 275 274 274 273 272 270 268 267 266 265 264
78 81 82 82 77 64 36 4 342 330 324 319 315 311 308 305 301 297 293 290 287 285 283 281 279 277 276 276 275 274 273 272 270 267 265 264 263 262
Height
5796 5798 5800 5803 5805 5808 5811 5814 5818 5820 5823 5825 5827 5828 5830 5832 5833 5835 5837 5839 5841 5843 5845 5846 5847 5849 5850 5851 5853 5854 5855 5856 5857 5858 5858 5859 5859 5860
5791 5793 5795 5797 5800 5803 5805 5808 5811 5815 5817 5820 5823 5825 5827 5828 5830 5832 5833 5835 5837 5838 5840 5842 5843 5845 5846 5847 5849 5850 5851 5852 5853 5854 5854 5855 5855 5856
5786 5788 5790 5792 5794 5796 5799 5802 5804 5808 5811 5814 5817 5820 5822 5824 5825 5827 5829 5831 5832 5834 5836 5837 5839 5840 5842 5843 5844 5845 5846 5847 5848 5849 5849 5850 5851 5851
5783 5784 5785 5787 5789 5790 5792 5795 5798 5801 5805 5808 5810 5813 5816 5818 5820 5822 5824 5826 5828 5829 5831 5832 5834 5835 5837 5838 5839 5840 5841 5842 5843 5844 5844 5844 5845 5846
5779 5780 5781 5782 5783 5784 5786 5788 5791 5794 5797 5800 5803 5806 5809 5811 5814 5816 5818 5820 5822 5824 5825 5827 5828 5830 5831 5833 5834 5835 5835 5837 5838 5838 5839 5839 5840 5840
5774 5775 5776 5777 5778 5779 5779 5781 5782 5785 5789 5792 5796 5799 5802 5804 5807 5810 5812 5814 5816 5818 5819 5820 5822 5824 5825 5827 5828 5829 5830 5831 5832 5833 5833 5834 5834 5834
5768 5769 5770 5771 5772 5772 5773 5773 5774 5776 5780 5784 5787 5791 5794 5797 5800 5803 5806 5808 5810 5810 5812 5814 5816 5817 5819 5820 5822 5823 5823 5824 5825 5826 5827 5827 5828 5828
5762 5762 5763 5764 5765 5765 5766 5766 5767 5768 5772 5775 5779 5782 5786 5789 5792 5796 5799 5801 5803 5803 5805 5807 5808 5809 5811 5813 5814 5815 5816 5817 5818 5819 5819 5820 5820 5821
5755 5756 5757 5758 5759 5759 5760 5760 5761 5762 5764 5767 5771 5774 5778 5781 5785 5788 5790 5793 5794 5796 5798 5798 5799 5801 5803 5804 5806 5807 5808 5809 5810 5810 5811 5812 5812 5812
5748 5749 5750 5751 5752 5753 5754 5755 5755 5756 5758 5760 5764 5766 5769 5772 5776 5779 5782 5785 5787 5788 5790 5790 5791 5793 5795 5795 5796 5797 5799 5800 5801 5801 5802 5802 5803 5803
5741 5741 5742 5744 5745 5746 5748 5749 5750 5751 5752 5753 5756 5758 5761 5764 5767 5770 5773 5776 5778 5780 5781 5782 5782 5784 5786 5786 5786 5788 5788 5789 5791 5791 5792 5792 5793 5794
5734 5735 5735 5736 5738 5739 5741 5743 5744 5746 5747 5748 5750 5752 5754 5756 5759 5762 5764 5767 5769 5771 5772 5773 5773 5775 5777 5776 5777 5778 5778 5779 5780 5781 5782 5782 5783 5784
5727 5728 5729 5729 5731 5732 5734 5736 5738 5740 5741 5743 5744 5746 5748 5750 5752 5754 5756 5758 5760 5761 5762 5763 5764 5765 5766 5767 5766 5767 5768 5769 5770 5770 5771 5772 5773 5773
5719 5720 5721 5723 5724 5726 5728 5730 5732 5734 5736 5737 5739 5741 5742 5744 5745 5746 5748 5749 5750 5752 5753 5753 5754 5755 5756 5757 5756 5756 5757 5758 5759 5759 5760 5761 5761 5762
5709 5711 5713 5715 5717 5720 5722 5724 5725 5728 5729 5731 5733 5734 5736 5737 5738 5739 5740 5740 5741 5742 5743 5743 5744 5744 5745 5745 5746 5746 5745 5746 5747 5747 5748 5749 5750 5750
5699 5702 5705 5708 5711 5713 5716 5718 5720 5722 5724 5725 5727 5728 5729 5730 5731 5732 5732 5733 5733 5733 5733 5733 5733 5733 5734 5734 5735 5735 5734 5734 5734 5735 5735 5736 5737 5738
5689 5693 5698 5702 5705 5708 5710 5713 5715 5717 5719 5720 5722 5723 5724 5724 5725 5725 5725 5725 5725 5724 5724 5723 5723 5722 5723 5723 5723 5723 5723 5723 5722 5722 5722 5723 5724 5725
5683 5688 5692 5696 5700 5703 5706 5709 5711 5713 5715 5716 5717 5718 5718 5718 5718 5718 5717 5717 5716 5715 5714 5713 5713 5712 5712 5712 5712 5711 5711 5710 5709 5709 5709 5710 5711 5711
5682 5686 5690 5694 5697 5700 5703 5706 5708 5709 5711 5712 5712 5712 5712 5712 5711 5710 5709 5708 5707 5706 5704 5703 5702 5701 5701 5701 5700 5699 5698 5697 5696 5696 5696 5696 5697 5697
5683 5686 5690 5693 5696 5699 5701 5703 5705 5706 5707 5707 5707 5707 5706 5705 5704 5702 5701 5699 5697 5695 5693 5692 5691 5690 5689 5688 5688 5687 5685 5684 5683 5683 5683 5683 5683 5683
5686 5688 5691 5693 5696 5698 5700 5702 5703 5703 5704 5703 5702 5701 5699 5697 5695 5693 5691 5689 5687 5684 5682 5680 5679 5678 5676 5675 5675 5673 5671 5670 5670 5669 5669 5669 5670 5670
5689 5691 5693 5695 5696 5698 5699 5700 5701 5701 5700 5699 5697 5695 5692 5690 5687 5684 5681 5678 5675 5673 5671 5669 5667 5665 5664 5662 5661 5659 5658 5656 5655 5655 5655 5656 5656 5657
5692 5693 5695 5696 5698 5699 5700 5700 5700 5699 5697 5695 5693 5689 5686 5682 5678 5675 5671 5667 5665 5662 5659 5657 5655 5652 5650 5649 5647 5645 5644 5642 5641 5640 5641 5641 5642 5643